Regional Weather Roundup
Issued by NWS

Home | Current Version | Previous Version | Text Only | Print | Product List | Glossary Off
Versions: 1 2 3 4 5 6 7 8 9 10 11 12 13 14 15 16 17 18 19 20 21 22 23 24 25 26 27 28 29 30 31 32 33 34 35 36 37 38 39 40 41 42 43 44 45 46 47 48 49 50

000
ASUS43 KLOT 182303
RWRIL

ILLINOIS REGIONAL WEATHER ROUNDUP
NATIONAL WEATHER SERVICE CHICAGO/ROMEOVILLE IL
500 PM CST SUN FEB 18 2018

NOTE: "FAIR" INDICATES FEW OR NO CLOUDS BELOW 12,000 FEET WITH NO
SIGNIFICANT WEATHER AND/OR OBSTRUCTIONS TO VISIBILITY.

* THESE STATIONS ARE NOT UNDER NWS QUALITY CONTROL. THEY ALSO MAY NOT
  REPORT WEATHER SUCH AS PRECIPITATION OR FOG.

ILZ001-002-007-009-015-016-024-190000-
NORTHWEST ILLINOIS

CITY           SKY/WX    TMP DP  RH WIND       PRES   REMARKS
MOLINE         FAIR      44  31  60 SE17G24   29.85F
STERLING*      FAIR      38  31  76 SE10G18   29.90F WCI  31
SAVANNA*       FAIR      37  30  75 SE16      29.88F WCI  28
$$

ILZ003-004-008-010-011-017-018-190000-
NORTH CENTRAL ILLINOIS

CITY           SKY/WX    TMP DP  RH WIND       PRES   REMARKS
ROCKFORD       CLOUDY    35  29  78 S17G26    29.95F WCI  25
FREEPORT*      FAIR      34  30  86 SE22      29.91F WCI  22
ROCHELLE*      FAIR      34  32  91 SE24      29.94F WCI  22
DE KALB*       FAIR      34  31  88 SE21G26   29.97F WCI  23
PERU*          FAIR      40  32  73 SE21G26   29.96F
$$

ILZ005-006-012>014-019>023-190000-
NORTHEAST ILLINOIS

CITY           SKY/WX    TMP DP  RH WIND       PRES   REMARKS
CHICAGO-OHARE  CLOUDY    37  27  67 S15       30.02F WCI  28
CHICAGO-MIDWAY CLOUDY    38  29  70 SE18G24   30.04F WCI  28
AURORA         FAIR      35  30  82 SE17      29.99F WCI  25
LANSING*       FAIR      36  32  84 S9        30.08F WCI  29
JOLIET*        FAIR      37  32  81 SE12G17   30.03F WCI  30
WAUKEGAN       FAIR      33  28  81 SE14G23   29.99F HAZE    WCI  23
DUPAGE AIRPORT FAIR      35  30  82 S16G30    29.99F WCI  25
KANKAKEE*      FAIR      38  32  80 SE10      30.06F WCI  30
WHEELING       FAIR      38  27  64 SE10      30.03F WCI  31
MORRIS*        FAIR      38  32  80 SE13      30.00F WCI  30
ROMEOVILLE*    FAIR      34  31  86 SE17      30.02F WCI  24
NORTHERLY ISL    N/A     35  28  76 SE12        N/A  WCI  27
$$

LMZ740>746-190000-
SOUTHERN LAKE MICHIGAN

STATION/POSITION SKY/WX   TEMP    WIND        PRES    VSBY  WAVE
                          AIR SEA DIR/SP/G                  HT/PER
                          (F)     (DEG/KT/KT) (MB)    (MI)  (FT/S)
HARRISON CRIB              36     170/ 20/ 22   N/A
BURNHAM HARBOR             35     130/ 11/ 14   N/A
CALUMET HARBOR             36     150/ 12/ 19 1017.8F
BURNS HARBOR               36     160/ 10/ 20 1019.0F
MICHIGAN CITY              36     140/ 15/ 18   N/A
$$

ILZ025>027-034>036-040-047-049-050-058-095>099-190000-
WEST-CENTRAL ILLINOIS

CITY           SKY/WX    TMP DP  RH WIND       PRES   REMARKS
QUINCY         PTCLDY    48  28  46 S16G26    29.86F
GALESBURG*     FAIR      44  32  63 SE13G21   29.88F
MACOMB*        CLOUDY    46  32  59 S23G29    29.90F
JACKSONVILLE*  CLOUDY    47  31  53 SE17G23   29.93F
PITTSFIELD*    CLOUDY    48  31  51 SE15G22   29.91F
$$

ILZ028>032-037-038-041>044-048-051>054-059>061-190000-
CENTRAL ILLINOIS

CITY           SKY/WX    TMP DP  RH WIND       PRES   REMARKS
PONTIAC        FAIR      41  37  86 SE14      30.00F
BLOOMINGTON    FAIR      42  33  70 S20       30.00F
DECATUR        FAIR      45  33  63 S17       30.03F
PEORIA         FAIR      46  33  60 S22G31    29.95F
LACON*         FAIR      43  33  68 S17       29.94F
LINCOLN*       FAIR      44  36  72 S16       29.99F
SPRINGFIELD    FAIR      48  32  53 S15G28    29.98F
TAYLORVILLE    FAIR      45  34  65 SE15      30.01F
$$

ILZ033-039-045-046-055>057-062-063-190000-
EAST-CENTRAL ILLINOIS

CITY           SKY/WX    TMP DP  RH WIND       PRES   REMARKS
CHAMPAIGN      FAIR      43  34  70 SE13      30.05F
DANVILLE*      FAIR      42  31  64 SE9       30.05F
RANTOUL*       FAIR      43  36  74 SE12      30.06F
MATTOON        FAIR      46  33  60 S14       30.05F
PARIS*         FAIR      44  35  71 SE10      30.09F
$$

ILZ079-100>102-190000-
SOUTHWEST ILLINOIS

CITY           SKY/WX    TMP DP  RH WIND       PRES   REMARKS
ALTON          MOCLDY    50  30  46 SE15G25   29.98F
BELLEVILLE     CLOUDY    50  30  45 S12       30.00F
CAHOKIA*       CLOUDY    50  30  46 SE16      29.98F
SPARTA*        PTCLDY    49  34  54 SE9       30.03F
$$

ILZ064>066-069>071-074>076-080>082-084>086-088>090-092>094-190000-
SOUTH-CENTRAL ILLINOIS

CITY           SKY/WX    TMP DP  RH WIND       PRES   REMARKS
CARBONDALE     FAIR      51  35  54 SE10      30.06F
CAIRO*         MOCLDY    53  37  54 S6        30.09F
EFFINGHAM*     FAIR      47  35  60 SE12G17   30.09S
MARION         MOCLDY    50  30  46 SE7       30.07F
MT. VERNON     FAIR      48  36  63 VRB6      30.07F
CENTRALIA*     CLOUDY    49  35  58 E7        30.04F
SALEM*         FAIR      49  34  55 SE10      30.06F
METROPOLIS*    MOCLDY    54  34  47 SE7       30.09F
$$

ILZ067-068-072-073-078-083-087-091-190000-
SOUTHEAST ILLINOIS

CITY           SKY/WX    TMP DP  RH WIND       PRES   REMARKS
LAWRENCEVILLE  FAIR      48  36  63 S9        30.12F
FLORA*         FAIR      48  36  62 SE12      30.09F
FAIRFIELD*     FAIR      47  37  66 SE8       30.08F
HARRISBURG*    FAIR      50  36  57 SE8       30.09F
ROBINSON*      FAIR      47  33  57 SE8       30.12S
CARMI*         FAIR      49  37  62 SE12      30.10S
$$

ABBREVIATIONS USED IN REMARKS
   TC - TEMPERATURE IN CELSIUS
  WCI - WIND CHILL INDEX
   HX - HEAT INDEX
  VSB - VISIBILITY
$$




USA.gov is the U.S. government's official web portal to all federal, state and local government web resources and services.